OBJECT B, 63211

Orbit data source: Space-Track

You're viewing an Uncataloged Satellite

Recently launched and/or uncataloged satellites may have evolving metadata. Metadata may include but not limited to: Owner, Maufacturer, Bus, Motor, and Mission.

OBJECT B, 63211 is a satellite in SSO that was launched on Sat, 15 Mar 2025 UTC via an FALCON 9 launch vehicle from the Air Force Western Test Range (AFWTR). Unknown objects in Earth's orbit typically refer to objects detected orbiting the Earth but have not yet been identified or cataloged. These objects could be anything from previously untracked satellites, spent rocket stages, debris from satellite collisions, or even natural meteoroids temporarily captured by Earth's gravity.

Loading next visibility...
Identifier
63211, 2025-052B
Orbit
SSO
Country
Flag of TBDTBD
Related business
Manufacturer
NUSHS
Mission
Operational Amateur Technology
Bus & Motor
CUBESAT 1U, Unknown motor
Mass
1 kg wet, 1 kg dry
Launch date (UTC)
2025-03-15 (1 year ago)
Launch vehicle
FALCON 9
Launch site
Air Force Western Test Range (AFWTR)
Object type
Unknown
Shape & HBR
Box, 0.2 m
Radar Cross Section
0.015 m², Small (<0.1 m²)

Expand to show TLE details & history
Last TLE update: 18 hours ago

TLE from 18 hours ago
0 OBJECT B
1 63211U 25052B   26072.23941223  .00021886  00000-0  70757-3 0  9994
2 63211  97.4086 329.3175 0005546  74.4171 285.7682 15.32080575 55434
Epoch: 2026-03-13T05:44Z
TLE epoch observation values (Epoch: 2026-03-13T05:44:45.216Z)
Latitude
-0.00009°
Longitude
72.25131°
Altitude
471.682 km
Speed
7.631 km/s
True Right ascension
21h 57m 16s
True Declination
0° 00' 00"
Sunlit
Object was in daylight at epoch
Visualization orbit readout
Latitude
Unknown
Longitude
Unknown
Altitude
Unknown
Speed
Unknown
Apparent Right ascension
Unknown
Apparent Declination
Unknown
Sunlit
N/A
Visualization observer readout
Local Sidereal Time
04:35:29
Azimuth
Unknown
Elevation
Unknown
Doppler factor
Unknown
Orbital elements
Apogee altitude
470.352 km
Perigee altitude
462.76 km
Semi-major axis
6,844.693 km
Eccentricity
0.00055
Inclination
97.4086°
RAAN
329.3175°
Arg. of periapsis
74.4171°
True anomaly
285.70703°
Mean anomaly
285.7682°
Eccentric anomaly
285.73761°
Mean motion
3.83277 °/min
Orbital period
93.93 mins
BSTAR
0.00070757
Loading maneuver chart data...
Computing Atmospheric mass density...
Loading historical data...
Loading historical data...
Loading historical data...
Loading historical data...
Loading historical data...
Loading historical data...
Loading historical data...

Documentation

Showing up to 5 results
|